Location: Cortada de Papelón
(10.0378°N, 66.9528°W)
Time: 16:26:55
(UTC+00:00)

Cosmos 1452 Rocket - Pass Details

Date: 13 June 2024
Orbit: 765 x 772 km, 74.1° (Epoch: 21 July)

Event Time Altitude Azimuth Distance (km) Brightness Sun altitude
Rises 23:01:11 0° 340° (NNW) 3,226 7.5 -3.5°
Reaches altitude 10° 23:03:35 10° 336° (NNW) 2,302 6.8 -4.0°
Maximum altitude 23:08:42 57° 258° (WSW) 903 4.3 -5.2°
Drops below altitude 10° 23:13:50 10° 180° (S) 2,308 5.7 -6.3°
Sets 23:16:15 0° 176° (S) 3,236 6.4 -6.9°
